Time,TemperatureF,DewpointF,PressureIn,WindDirection,WindDirectionDegrees,WindSpeedMPH,WindSpeedGustMPH,Humidity,HourlyPrecipIn,Conditions,Clouds,dailyrainin,SoftwareType,DateUTC
2013-06-29 00:12:00,84.1,48.0,29.71,WNW,283,9.0,17.0,28,0.00,,,0.00,weatherlink.com 1.10,2013-06-29 07:12:00,
2013-06-29 00:27:00,83.6,47.0,29.71,NW,322,10.0,16.0,28,0.00,,,0.00,weatherlink.com 1.10,2013-06-29 07:27:00,
2013-06-29 00:42:00,83.6,47.0,29.72,WNW,296,5.0,13.0,28,0.00,,,0.00,weatherlink.com 1.10,2013-06-29 07:42:00,
2013-06-29 00:57:00,83.6,46.0,29.72,WNW,302,6.0,16.0,27,0.00,,,0.00,weatherlink.com 1.10,2013-06-29 07:57:00,
2013-06-29 01:12:00,83.0,49.0,29.72,WNW,302,5.0,11.0,30,0.00,,,0.00,weatherlink.com 1.10,2013-06-29 08:12:00,
2013-06-29 01:27:00,82.8,48.0,29.72,NNW,332,6.0,11.0,30,0.00,,,0.00,weatherlink.com 1.10,2013-06-29 08:27:00,
2013-06-29 01:42:00,81.4,48.0,29.72,NNW,331,6.0,9.0,31,0.00,,,0.00,weatherlink.com 1.10,2013-06-29 08:42:00,
2013-06-29 01:57:00,80.9,49.0,29.71,West,275,6.0,10.0,33,0.00,,,0.00,weatherlink.com 1.10,2013-06-29 08:57:00,
2013-06-29 02:12:00,81.1,49.0,29.72,WNW,291,6.0,14.0,32,0.00,,,0.00,weatherlink.com 1.10,2013-06-29 09:12:00,
2013-06-29 02:28:00,81.6,49.0,29.72,West,269,9.0,15.0,32,0.00,,,0.00,weatherlink.com 1.10,2013-06-29 09:28:00,
2013-06-29 02:43:00,80.5,49.0,29.72,NW,322,7.0,17.0,33,0.00,,,0.00,weatherlink.com 1.10,2013-06-29 09:43:00,
2013-06-29 02:58:00,80.1,48.0,29.72,NNW,334,5.0,16.0,32,0.00,,,0.00,weatherlink.com 1.10,2013-06-29 09:58:00,
2013-06-29 03:13:00,79.2,48.0,29.72,NW,325,8.0,14.0,33,0.00,,,0.00,weatherlink.com 1.10,2013-06-29 10:13:00,
2013-06-29 03:28:00,79.6,50.0,29.72,NNW,338,11.0,15.0,36,0.00,,,0.00,weatherlink.com 1.10,2013-06-29 10:28:00,
2013-06-29 03:43:00,79.4,49.0,29.72,NW,317,11.0,15.0,35,0.00,,,0.00,weatherlink.com 1.10,2013-06-29 10:43:00,
2013-06-29 03:58:00,78.8,49.0,29.71,NNW,327,6.0,11.0,35,0.00,,,0.00,weatherlink.com 1.10,2013-06-29 10:58:00,
2013-06-29 04:13:00,79.4,48.0,29.71,NW,309,9.0,15.0,33,0.00,,,0.00,weatherlink.com 1.10,2013-06-29 11:13:00,
2013-06-29 04:28:00,79.6,47.0,29.70,WNW,290,5.0,12.0,32,0.00,,,0.00,weatherlink.com 1.10,2013-06-29 11:28:00,
2013-06-29 04:43:00,78.6,49.0,29.71,NW,322,10.0,19.0,35,0.00,,,0.00,weatherlink.com 1.10,2013-06-29 11:43:00,
2013-06-29 04:58:00,77.2,48.0,29.71,NNW,344,5.0,13.0,36,0.00,,,0.00,weatherlink.com 1.10,2013-06-29 11:58:00,
2013-06-29 05:13:00,77.0,47.0,29.72,NNW,343,5.0,10.0,35,0.00,,,0.00,weatherlink.com 1.10,2013-06-29 12:13:00,
2013-06-29 05:28:00,77.0,47.0,29.72,North,5,5.0,12.0,35,0.00,,,0.00,weatherlink.com 1.10,2013-06-29 12:28:00,
2013-06-29 05:43:00,77.0,46.0,29.73,NNW,327,5.0,11.0,33,0.00,,,0.00,weatherlink.com 1.10,2013-06-29 12:43:00,
2013-06-29 05:58:00,77.0,45.0,29.74,NNE,17,5.0,10.0,32,0.00,,,0.00,weatherlink.com 1.10,2013-06-29 12:58:00,
2013-06-29 06:13:00,77.7,47.0,29.74,NNE,17,2.0,12.0,34,0.00,,,0.00,weatherlink.com 1.10,2013-06-29 13:13:00,
2013-06-29 06:28:00,77.9,48.0,29.74,NNW,340,7.0,8.0,35,0.00,,,0.00,weatherlink.com 1.10,2013-06-29 13:28:00,
2013-06-29 06:43:00,78.3,48.0,29.73,NNW,345,7.0,11.0,35,0.00,,,0.00,weatherlink.com 1.10,2013-06-29 13:43:00,
2013-06-29 06:58:00,79.4,45.0,29.73,NE,34,5.0,10.0,30,0.00,,,0.00,weatherlink.com 1.10,2013-06-29 13:58:00,
2013-06-29 07:13:00,77.7,46.0,29.73,North,355,4.0,7.0,32,0.00,,,0.00,weatherlink.com 1.10,2013-06-29 14:13:00,
2013-06-29 07:28:00,77.0,45.0,29.73,North,5,3.0,6.0,32,0.00,,,0.00,weatherlink.com 1.10,2013-06-29 14:28:00,
2013-06-29 07:43:00,77.6,44.0,29.73,NNE,12,3.0,6.0,30,0.00,,,0.00,weatherlink.com 1.10,2013-06-29 14:43:00,
2013-06-29 07:58:00,79.8,45.0,29.73,NE,38,4.0,7.0,29,0.00,,,0.00,weatherlink.com 1.10,2013-06-29 14:58:00,
2013-06-29 08:13:00,81.2,45.0,29.73,NNE,24,5.0,9.0,28,0.00,,,0.00,weatherlink.com 1.10,2013-06-29 15:13:00,
2013-06-29 08:28:00,81.6,45.0,29.73,North,5,7.0,10.0,28,0.00,,,0.00,weatherlink.com 1.10,2013-06-29 15:28:00,
2013-06-29 08:43:00,83.4,46.0,29.73,NNW,339,4.0,8.0,27,0.00,,,0.00,weatherlink.com 1.10,2013-06-29 15:43:00,
2013-06-29 08:58:00,84.0,46.0,29.73,NNW,346,8.0,9.0,26,0.00,,,0.00,weatherlink.com 1.10,2013-06-29 15:58:00,
2013-06-29 09:13:00,86.7,46.0,29.73,NE,37,7.0,10.0,24,0.00,,,0.00,weatherlink.com 1.10,2013-06-29 16:13:00,
2013-06-29 09:28:00,88.6,46.0,29.73,NNE,33,3.0,11.0,23,0.00,,,0.00,weatherlink.com 1.10,2013-06-29 16:28:00,
2013-06-29 09:43:00,88.6,46.0,29.72,NE,38,6.0,13.0,23,0.00,,,0.00,weatherlink.com 1.10,2013-06-29 16:43:00,
2013-06-29 09:58:00,89.7,46.0,29.72,NE,53,7.0,13.0,22,0.00,,,0.00,weatherlink.com 1.10,2013-06-29 16:58:00,
2013-06-29 10:13:00,89.9,45.0,29.72,NNE,29,11.0,12.0,21,0.00,,,0.00,weatherlink.com 1.10,2013-06-29 17:13:00,
2013-06-29 10:28:00,91.0,45.0,29.72,NNE,24,8.0,13.0,20,0.00,,,0.00,weatherlink.com 1.10,2013-06-29 17:28:00,
2013-06-29 10:43:00,92.5,46.0,29.71,NNE,25,12.0,13.0,20,0.00,,,0.00,weatherlink.com 1.10,2013-06-29 17:43:00,
2013-06-29 10:58:00,93.4,45.0,29.71,NNE,31,4.0,13.0,19,0.00,,,0.00,weatherlink.com 1.10,2013-06-29 17:58:00,
2013-06-29 11:13:00,94.0,44.0,29.71,NNE,26,0.0,11.0,18,0.00,,,0.00,weatherlink.com 1.10,2013-06-29 18:13:00,
2013-06-29 11:28:00,95.6,44.0,29.70,NNE,21,7.0,11.0,17,0.00,,,0.00,weatherlink.com 1.10,2013-06-29 18:28:00,
2013-06-29 11:43:00,97.1,44.0,29.70,NE,34,4.0,14.0,16,0.00,,,0.00,weatherlink.com 1.10,2013-06-29 18:43:00,
2013-06-29 11:58:00,96.6,45.0,29.70,NE,36,9.0,13.0,17,0.00,,,0.00,weatherlink.com 1.10,2013-06-29 18:58:00,
2013-06-29 12:13:00,97.5,44.0,29.70,NNE,26,6.0,16.0,16,0.00,,,0.00,weatherlink.com 1.10,2013-06-29 19:13:00,
2013-06-29 12:28:00,95.4,44.0,29.69,NNE,29,10.0,12.0,17,0.00,,,0.00,weatherlink.com 1.10,2013-06-29 19:28:00,
2013-06-29 12:44:00,97.1,44.0,29.68,NNE,24,3.0,15.0,16,0.00,,,0.00,weatherlink.com 1.10,2013-06-29 19:44:00,
2013-06-29 12:59:00,96.8,42.0,29.68,NW,317,9.0,13.0,15,0.00,,,0.00,weatherlink.com 1.10,2013-06-29 19:59:00,
2013-06-29 13:14:00,97.1,44.0,29.67,NE,40,5.0,14.0,16,0.00,,,0.00,weatherlink.com 1.10,2013-06-29 20:14:00,
2013-06-29 13:29:00,100.4,45.0,29.67,ESE,121,4.0,10.0,15,0.00,,,0.00,weatherlink.com 1.10,2013-06-29 20:29:00,
2013-06-29 13:44:00,102.0,44.0,29.66,East,80,11.0,12.0,14,0.00,,,0.00,weatherlink.com 1.10,2013-06-29 20:44:00,
2013-06-29 13:59:00,101.0,42.0,29.66,ENE,76,2.0,13.0,13,0.00,,,0.00,weatherlink.com 1.10,2013-06-29 20:59:00,
2013-06-29 14:14:00,103.8,44.0,29.65,ENE,68,5.0,12.0,13,0.00,,,0.00,weatherlink.com 1.10,2013-06-29 21:14:00,
2013-06-29 14:29:00,100.4,41.0,29.64,NE,52,3.0,21.0,13,0.00,,,0.00,weatherlink.com 1.10,2013-06-29 21:29:00,
2013-06-29 14:44:00,102.0,40.0,29.64,ENE,57,11.0,16.0,12,0.00,,,0.00,weatherlink.com 1.10,2013-06-29 21:44:00,
2013-06-29 14:59:00,101.5,40.0,29.63,NE,56,13.0,15.0,12,0.00,,,0.00,weatherlink.com 1.10,2013-06-29 21:59:00,
2013-06-29 15:14:00,104.1,40.0,29.63,NNE,22,4.0,12.0,11,0.00,,,0.00,weatherlink.com 1.10,2013-06-29 22:14:00,
2013-06-29 15:29:00,104.1,40.0,29.62,ENE,64,5.0,14.0,11,0.00,,,0.00,weatherlink.com 1.10,2013-06-29 22:29:00,
2013-06-29 15:44:00,102.3,38.0,29.62,NNW,344,4.0,13.0,11,0.00,,,0.00,weatherlink.com 1.10,2013-06-29 22:44:00,
2013-06-29 15:59:00,101.7,40.0,29.62,NE,41,2.0,13.0,12,0.00,,,0.00,weatherlink.com 1.10,2013-06-29 22:59:00,
2013-06-29 16:14:00,102.0,38.0,29.61,ENE,57,3.0,14.0,11,0.00,,,0.00,weatherlink.com 1.10,2013-06-29 23:14:00,
2013-06-29 16:29:00,102.0,38.0,29.61,NE,36,14.0,15.0,11,0.00,,,0.00,weatherlink.com 1.10,2013-06-29 23:29:00,
2013-06-29 16:44:00,102.8,39.0,29.60,ENE,57,11.0,14.0,11,0.00,,,0.00,weatherlink.com 1.10,2013-06-29 23:44:00,
2013-06-29 16:59:00,102.0,38.0,29.60,ENE,74,10.0,17.0,11,0.00,,,0.00,weatherlink.com 1.10,2013-06-29 23:59:00,
2013-06-29 17:14:00,100.7,37.0,29.60,NE,41,8.0,15.0,11,0.00,,,0.00,weatherlink.com 1.10,2013-06-30 00:14:00,
2013-06-29 17:29:00,101.5,38.0,29.60,ENE,64,11.0,13.0,11,0.00,,,0.00,weatherlink.com 1.10,2013-06-30 00:29:00,
2013-06-29 17:44:00,99.9,39.0,29.60,NE,50,11.0,15.0,12,0.00,,,0.00,weatherlink.com 1.10,2013-06-30 00:44:00,
2013-06-29 17:59:00,99.7,39.0,29.60,NE,38,9.0,16.0,12,0.00,,,0.00,weatherlink.com 1.10,2013-06-30 00:59:00,
2013-06-29 18:14:00,99.2,36.0,29.61,NE,44,11.0,15.0,11,0.00,,,0.00,weatherlink.com 1.10,2013-06-30 01:14:00,
2013-06-29 18:29:00,99.0,36.0,29.61,NE,36,8.0,16.0,11,0.00,,,0.00,weatherlink.com 1.10,2013-06-30 01:29:00,
2013-06-29 18:44:00,98.5,38.0,29.61,ENE,60,8.0,13.0,12,0.00,,,0.00,weatherlink.com 1.10,2013-06-30 01:44:00,
2013-06-29 18:59:00,98.0,35.0,29.61,North,5,9.0,11.0,11,0.00,,,0.00,weatherlink.com 1.10,2013-06-30 01:59:00,
2013-06-29 19:14:00,97.5,35.0,29.61,ENE,69,5.0,11.0,11,0.00,,,0.00,weatherlink.com 1.10,2013-06-30 02:14:00,
2013-06-29 19:29:00,96.3,34.0,29.62,NNE,32,6.0,13.0,11,0.00,,,0.00,weatherlink.com 1.10,2013-06-30 02:29:00,
2013-06-29 19:44:00,95.1,33.0,29.62,North,5,4.0,13.0,11,0.00,,,0.00,weatherlink.com 1.10,2013-06-30 02:44:00,
2013-06-29 19:59:00,93.4,29.0,29.63,North,360,4.0,10.0,10,0.00,,,0.00,weatherlink.com 1.10,2013-06-30 02:59:00,
2013-06-29 20:14:00,92.3,28.0,29.63,North,5,0.0,4.0,10,0.00,,,0.00,weatherlink.com 1.10,2013-06-30 03:14:00,
2013-06-29 20:29:00,90.1,29.0,29.64,North,5,0.0,1.0,11,0.00,,,0.00,weatherlink.com 1.10,2013-06-30 03:29:00,
2013-06-29 20:44:00,88.4,27.0,29.64,West,261,2.0,6.0,11,0.00,,,0.00,weatherlink.com 1.10,2013-06-30 03:44:00,
2013-06-29 20:59:00,89.3,28.0,29.65,SSE,151,0.0,7.0,11,0.00,,,0.00,weatherlink.com 1.10,2013-06-30 03:59:00,
2013-06-29 21:14:00,90.5,29.0,29.65,SE,142,2.0,4.0,11,0.00,,,0.00,weatherlink.com 1.10,2013-06-30 04:14:00,
2013-06-29 21:29:00,86.3,26.0,29.65,SE,142,1.0,3.0,11,0.00,,,0.00,weatherlink.com 1.10,2013-06-30 04:29:00,
2013-06-29 21:44:00,83.6,26.0,29.65,SE,142,1.0,3.0,12,0.00,,,0.00,weatherlink.com 1.10,2013-06-30 04:44:00,
2013-06-29 21:59:00,84.5,24.0,29.65,SE,144,4.0,5.0,11,0.00,,,0.00,weatherlink.com 1.10,2013-06-30 04:59:00,
2013-06-29 22:14:00,85.7,25.0,29.65,NNW,335,6.0,8.0,11,0.00,,,0.00,weatherlink.com 1.10,2013-06-30 05:14:00,
2013-06-29 22:29:00,84.7,27.0,29.65,NNW,335,2.0,6.0,12,0.00,,,0.00,weatherlink.com 1.10,2013-06-30 05:29:00,
2013-06-29 22:44:00,84.1,28.0,29.66,North,355,2.0,5.0,13,0.00,,,0.00,weatherlink.com 1.10,2013-06-30 05:44:00,
2013-06-29 22:59:00,82.6,27.0,29.66,NNW,347,7.0,9.0,13,0.00,,,0.00,weatherlink.com 1.10,2013-06-30 05:59:00,
2013-06-29 23:14:00,84.5,28.0,29.66,North,5,5.0,8.0,13,0.00,,,0.00,weatherlink.com 1.10,2013-06-30 06:14:00,
2013-06-29 23:29:00,84.0,28.0,29.66,NNW,346,4.0,8.0,13,0.00,,,0.00,weatherlink.com 1.10,2013-06-30 06:29:00,
2013-06-29 23:44:00,84.0,28.0,29.66,NNW,344,5.0,8.0,13,0.00,,,0.00,weatherlink.com 1.10,2013-06-30 06:44:00,
2013-06-29 23:59:00,83.8,30.0,29.67,NNW,342,6.0,10.0,14,0.00,,,0.00,weatherlink.com 1.10,2013-06-30 06:59:00,